Wind_Speed
27 28 29 29 30 30 29 29 29 29 28 28 27 26 25 24 24 24 24 25 25 25 25 26 26 26 25 24 25 25 26 26 27 28 27 27 27 27 27 28 29 30 32 33 35 35 36 37 38 41 43 44 45 45 46 46 47 47 45 44 42 40 37 34 31 30 29 30 34 38 40 42 44 45 45 47 48 48 48 47 47 46 47 47 48
27 27 27 28 30 30 30 30 30 29 29 29 28 27 27 26 26 27 27 27 27 28 28 28 28 28 27 26 27 27 27 28 29 30 29 29 29 29 28 29 30 31 33 35 36 36 37 38 39 40 42 44 45 46 46 47 49 49 48 47 46 42 39 35 31 29 28 29 33 37 40 43 45 47 47 48 50 51 50 50 50 49 49 50 51
27 26 27 28 29 30 30 31 30 30 30 30 29 29 29 29 29 30 30 29 30 30 29 29 29 29 28 27 28 29 30 30 31 31 31 32 31 31 30 30 31 33 35 37 37 37 38 39 40 41 43 44 46 46 47 48 49 50 50 50 49 46 41 36 32 28 26 27 32 37 40 43 46 48 49 49 51 52 53 52 52 52 52 53 54
28 28 29 29 29 30 31 31 31 31 31 31 31 32 32 32 32 32 32 31 31 31 31 30 30 29 29 29 29 31 32 32 32 33 33 34 34 33 33 33 33 34 36 39 39 39 40 40 41 43 45 45 47 48 47 48 49 50 50 50 50 48 43 38 33 27 24 25 30 36 39 43 46 48 50 51 51 53 54 54 54 54 55 56 57
30 30 31 31 31 32 32 32 32 32 32 32 33 33 34 34 33 33 33 33 33 32 32 31 31 31 31 31 31 32 33 34 34 35 35 36 36 36 36 36 36 36 38 40 41 41 41 42 43 45 46 47 48 49 48 48 49 50 50 50 50 48 44 39 34 28 23 23 28 34 38 42 46 49 51 52 53 54 55 55 56 56 57 59 60
32 32 33 33 33 34 34 34 34 33 33 34 34 35 35 35 35 35 35 35 34 34 33 32 32 32 32 33 33 34 35 36 37 37 37 38 38 38 39 39 39 39 39 41 43 43 43 44 45 47 48 48 50 50 49 49 49 50 50 50 49 48 45 40 34 29 23 22 25 31 37 41 45 49 52 54 55 55 56 56 57 57 58 60 62
35 35 35 35 36 37 37 36 35 35 35 36 36 36 36 36 36 36 35 35 35 35 35 34 34 34 34 35 36 37 38 39 39 39 39 40 41 41 41 42 42 42 42 43 44 44 45 45 47 49 50 51 52 52 50 50 50 51 50 50 49 48 45 41 36 30 25 22 24 30 35 40 45 49 52 54 56 57 57 57 57 58 60 61 63
37 37 38 39 40 40 39 38 37 37 37 37 38 37 37 37 37 36 36 37 37 37 36 36 36 36 36 37 38 39 40 41 41 41 41 41 43 44 44 44 44 44 44 45 46 46 46 47 48 50 52 52 54 54 51 50 52 52 51 50 49 47 45 41 37 32 27 23 24 29 35 41 46 50 52 55 56 57 58 58 58 58 60 62 64
39 39 39 40 42 42 41 40 40 39 39 40 39 39 39 39 38 38 38 38 38 38 38 38 38 38 39 40 40 41 42 43 43 43 43 43 45 46 47 47 46 46 46 47 48 48 48 49 50 52 53 54 55 55 53 52 53 53 52 51 49 46 44 41 37 34 29 25 24 29 35 41 46 50 53 55 57 58 59 59 58 59 61 63 65
40 40 40 42 42 42 41 41 41 41 41 41 41 41 41 40 40 39 39 39 40 40 40 40 40 41 41 42 43 43 44 44 45 45 45 46 47 48 49 49 48 48 48 49 50 50 50 51 52 53 55 55 55 55 53 53 54 54 53 51 48 45 43 40 37 35 31 27 26 29 36 42 46 50 53 55 57 59 60 59 59 60 62 64 66
43 43 44 44 43 43 43 43 43 43 43 43 42 42 42 42 42 42 42 42 42 42 43 43 43 43 44 44 44 45 45 46 46 47 48 49 49 50 51 52 51 50 51 51 52 52 53 54 55 55 56 56 56 54 53 53 55 55 54 52 47 43 42 39 36 35 33 29 27 29 35 41 46 51 54 56 58 60 61 60 59 60 63 65 67
46 47 47 46 45 46 46 46 46 46 46 45 45 44 44 44 45 46 46 46 45 45 46 46 45 45 46 46 47 47 47 48 49 49 50 51 51 52 53 54 54 54 54 54 55 55 55 56 56 57 58 57 56 54 53 54 56 56 54 51 46 42 40 38 36 35 33 30 28 29 34 41 46 50 54 56 59 60 61 60 60 61 63 66 68
49 49 49 49 49 49 48 48 49 49 48 48 47 47 46 47 48 48 49 48 48 48 48 48 47 47 48 49 49 49 50 51 51 52 53 53 54 55 55 57 57 57 57 57 58 58 58 58 58 59 60 59 57 55 54 56 57 56 53 50 45 41 38 37 37 35 33 31 30 30 34 41 46 50 54 57 59 60 60 60 60 61 63 67 69
51 51 51 51 52 52 51 51 51 51 51 50 49 49 49 50 50 51 51 51 50 50 51 50 50 50 51 51 51 51 52 54 54 55 55 56 57 57 58 59 60 61 61 60 60 60 61 61 61 62 62 60 58 56 55 57 58 56 52 48 43 39 37 36 37 36 34 32 30 30 36 42 46 50 54 57 59 59 59 60 61 61 64 67 70
54 54 54 54 54 54 53 53 53 53 53 53 52 53 53 53 53 53 53 53 53 53 53 53 53 54 54 54 53 54 56 57 58 58 59 59 60 60 60 62 63 64 64 64 63 63 63 64 65 65 64 62 60 59 58 58 58 55 50 45 41 38 36 36 37 36 34 32 30 31 37 42 45 49 53 56 58 59 59 60 61 62 64 67 70
57 57 57 57 57 57 57 56 56 55 55 56 57 57 57 56 56 56 56 56 56 56 56 57 57 57 57 57 57 58 59 60 61 62 62 63 63 63 63 65 65 66 66 66 66 65 65 67 67 67 65 63 61 61 60 58 57 53 47 42 39 37 36 36 37 36 34 32 30 32 38 42 45 49 53 56 58 58 59 60 61 62 65 67 70
56 57 57 58 58 59 58 58 57 57 58 59 60 61 61 60 60 59 59 60 60 59 60 60 61 61 61 61 61 62 63 63 65 66 66 66 66 66 66 67 67 67 68 69 68 68 67 68 68 67 66 63 62 61 59 56 54 49 43 38 37 36 35 36 36 36 34 32 31 33 38 42 46 50 53 56 58 59 59 60 62 64 66 68 72
52 52 53 54 55 56 55 56 56 57 58 59 60 61 62 62 62 62 62 62 62 62 63 63 63 64 64 65 65 65 65 66 67 68 69 69 69 68 68 68 68 68 69 69 69 69 68 68 68 67 65 63 60 57 53 50 48 44 39 36 36 35 35 36 37 36 35 33 33 35 39 42 46 50 54 57 59 60 60 61 62 65 67 69 72
45 46 48 49 50 50 50 51 53 54 54 55 56 57 57 57 58 59 59 59 59 60 61 62 62 62 62 63 63 63 63 64 65 67 68 69 69 68 67 66 66 67 67 68 68 68 67 66 66 65 61 57 53 49 45 44 42 40 36 35 35 35 34 35 38 38 36 35 34 36 40 43 47 51 55 59 60 61 61 61 63 66 68 70 73
40 42 43 44 45 45 45 46 47 48 49 49 50 51 52 52 52 52 53 53 53 54 55 55 56 57 57 57 56 56 57 58 59 61 63 63 64 64 62 61 62 63 63 63 65 66 65 63 63 60 53 47 44 41 39 38 37 36 35 34 35 35 35 36 38 38 37 36 35 37 41 44 48 53 56 60 62 61 61 62 64 67 69 71 74
39 40 41 42 43 43 43 43 43 44 45 46 46 47 48 48 48 48 49 50 50 50 51 51 51 52 53 54 53 53 53 54 54 57 59 59 59 59 57 56 57 58 58 59 60 61 60 59 58 54 46 40 39 36 33 33 34 34 35 35 35 35 36 37 38 38 38 36 36 39 42 45 50 54 58 61 62 62 62 63 65 68 70 72 74
39 40 41 42 42 42 43 43 43 43 44 45 45 46 46 46 46 47 48 48 48 48 49 49 49 50 51 52 53 53 53 53 53 54 56 57 56 56 55 55 56 55 54 55 55 55 55 53 50 47 41 35 34 33 30 31 33 34 34 34 34 35 37 38 39 39 38 37 37 39 44 48 52 56 59 61 62 62 63 64 66 69 72 72 74
40 41 41 42 42 43 43 44 44 44 45 46 47 47 47 47 48 48 48 48 47 47 48 49 48 49 51 52 53 54 54 53 53 54 56 56 56 56 56 55 55 52 50 51 50 48 47 46 43 41 37 31 28 30 30 31 33 33 33 33 34 35 37 39 40 41 40 38 38 41 46 50 54 56 57 59 62 63 63 64 67 70 72 73 74
42 43 43 43 43 43 44 45 45 46 46 47 48 49 50 50 50 50 50 49 49 48 49 49 49 49 50 51 52 53 53 52 52 53 55 57 57 57 56 55 54 51 46 44 43 43 43 43 40 38 33 27 26 28 30 31 32 33 33 34 33 34 36 39 41 42 41 39 40 43 48 52 54 56 56 58 62 63 63 65 68 71 73 73 75
46 46 46 45 45 44 44 45 47 47 48 48 49 51 52 52 53 53 53 52 51 51 51 51 50 50 51 52 52 52 51 49 49 51 54 56 58 58 56 54 54 51 46 42 41 42 44 43 41 36 31 26 26 28 29 30 31 32 33 33 33 34 36 38 40 41 40 40 43 47 50 53 55 56 56 58 62 64 64 66 68 71 73 74 75
49 49 49 49 48 47 47 47 47 48 49 49 50 52 53 54 55 55 55 55 55 54 53 52 51 51 51 52 53 52 49 48 48 50 52 55 58 58 55 52 52 50 47 44 42 40 42 43 40 35 30 27 28 29 29 29 30 31 32 33 34 36 38 39 40 40 40 42 46 50 52 54 55 56 56 59 63 64 65 67 69 71 73 74 75
52 52 52 52 51 51 50 49 49 50 50 51 51 52 53 54 55 56 57 58 58 57 56 54 52 51 51 52 53 52 50 48 49 51 53 54 56 57 57 55 51 48 47 45 41 38 40 40 36 30 28 29 30 31 31 30 30 31 32 34 36 38 40 41 41 40 41 44 49 53 54 54 55 56 57 60 63 65 66 68 70 72 74 75 76
55 55 55 55 54 53 53 53 53 52 52 53 53 54 54 55 56 57 58 59 59 59 59 57 56 55 53 52 51 51 49 49 51 52 53 54 55 57 59 58 53 48 46 45 42 39 39 38 35 30 27 29 32 35 36 35 33 33 35 36 37 38 40 43 44 43 45 48 52 54 55 55 56 58 59 62 65 66 68 70 71 72 74 75 76
59 58 58 58 57 56 56 56 56 55 55 55 55 56 57 58 58 58 59 60 61 61 61 60 59 58 56 53 52 50 48 49 52 53 52 53 56 57 57 57 55 52 48 42 39 42 48 51 50 46 39 37 40 43 44 42 39 38 40 40 39 38 40 43 46 48 50 52 54 56 57 57 59 60 61 64 67 68 70 71 72 73 74 76 77
61 61 61 61 60 59 59 59 59 59 58 58 58 59 59 60 60 60 61 62 62 63 63 62 61 59 56 53 52 50 48 50 54 55 53 54 57 58 56 54 54 54 50 41 39 47 58 64 64 59 53 50 50 51 51 49 47 46 46 44 42 41 41 43 47 51 55 57 58 59 59 60 61 62 63 66 69 70 71 72 73 74 75 76 78
64 64 64 63 63 63 62 62 62 62 62 62 61 62 62 62 62 62 63 63 64 64 64 64 62 60 57 53 51 50 50 51 54 55 56 57 58 58 56 54 53 53 50 41 37 44 55 62 64 63 60 55 53 56 59 56 51 51 52 49 46 47 47 48 51 55 59 62 63 63 63 63 63 63 65 68 71 71 72 73 74 74 76 77 78
67 67 67 66 66 65 65 65 65 65 66 66 65 65 65 65 65 65 65 65 65 65 65 65 64 61 58 54 50 49 50 51 53 55 58 60 60 58 57 56 54 52 48 41 33 36 49 60 65 66 64 57 53 58 60 56 53 55 55 52 52 54 55 56 58 60 62 64 66 67 67 66 66 66 67 70 72 72 73 74 74 75 76 77 79
70 70 69 69 69 68 68 69 69 69 69 69 69 69 68 68 68 68 68 68 67 67 67 67 65 63 59 54 49 47 48 50 53 56 60 62 60 57 56 58 57 52 47 41 32 33 45 57 61 63 62 58 54 55 55 52 51 54 55 55 56 55 55 58 61 63 64 66 68 70 71 69 68 67 69 72 73 74 74 75 75 76 77 78 80
73 73 72 72 72 72 72 72 72 72 72 71 71 71 71 71 71 71 71 70 70 69 69 68 67 65 60 54 49 46 46 48 52 56 60 62 60 55 55 57 58 53 47 41 35 34 43 54 58 60 60 56 53 54 55 52 49 52 57 61 59 53 50 52 56 61 65 68 70 72 72 70 68 68 70 73 74 74 75 75 76 77 78 78 80
76 76 76 76 76 75 75 75 75 75 75 74 74 73 73 74 74 74 74 73 72 71 71 70 69 65 58 52 49 46 45 47 51 55 60 63 60 56 54 55 56 54 49 43 38 36 42 54 62 63 60 54 51 53 57 56 54 55 60 61 58 55 52 51 53 60 67 71 73 74 73 69 67 67 70 73 75 75 75 75 76 77 78 79 81
79 79 79 79 79 79 79 79 78 78 77 77 77 76 76 76 76 76 76 75 75 75 74 73 72 67 58 50 46 45 46 48 51 55 60 62 59 55 55 54 54 54 50 44 39 38 40 50 60 63 62 57 55 54 55 54 53 53 54 54 54 55 55 53 54 61 68 72 75 76 74 70 67 68 71 74 75 75 74 75 76 77 78 80 82
82 81 81 82 82 82 82 81 80 79 79 78 77 77 76 76 75 74 73 73 73 75 76 76 74 70 62 53 46 44 47 51 53 54 57 57 54 52 54 54 54 53 50 44 41 42 43 44 49 57 60 58 53 51 51 50 48 48 49 50 51 52 52 53 57 63 68 72 75 77 76 72 69 68 71 75 75 75 75 75 76 77 78 80 83
79 79 80 82 82 83 83 82 81 80 79 79 78 76 74 72 71 69 68 68 69 71 74 76 74 69 63 55 47 44 47 51 54 53 51 50 49 50 52 53 52 51 50 47 45 48 51 47 46 51 56 54 51 52 54 52 50 49 51 52 52 52 53 55 59 63 68 71 73 75 76 73 70 69 72 75 76 76 75 75 76 78 80 82 84
76 77 78 78 79 80 81 80 79 78 78 77 76 74 72 70 70 69 69 70 71 71 72 72 70 66 60 52 45 43 46 50 52 51 48 47 48 49 51 51 49 49 52 51 48 52 57 56 52 53 57 58 57 59 59 57 55 55 56 56 58 59 60 60 61 64 68 70 72 73 74 71 69 71 74 76 77 75 74 75 76 79 81 83 84
77 77 76 76 76 77 78 77 77 76 76 76 75 74 74 73 73 72 73 74 74 72 69 65 63 61 57 48 41 43 47 49 48 48 47 46 45 44 45 47 46 47 51 51 50 55 59 59 56 57 60 62 62 62 61 59 58 58 58 61 64 66 66 65 66 68 70 71 72 71 69 68 69 73 76 77 76 74 74 76 78 80 82 84 85
78 77 75 74 74 75 75 75 75 75 76 76 75 75 75 75 74 74 75 75 73 70 66 61 57 56 53 45 40 41 46 48 46 44 42 38 36 36 40 43 45 44 41 40 45 51 55 57 58 60 61 61 61 61 58 56 56 58 61 65 68 69 69 70 71 72 73 72 71 68 67 68 71 75 76 76 75 74 75 77 79 82 83 84 85
79 77 76 74 74 74 74 73 73 74 75 75 75 76 75 75 75 76 76 74 70 68 64 59 55 52 49 44 39 39 43 45 46 45 40 32 30 33 34 34 36 34 29 28 35 42 47 51 56 59 59 59 59 58 55 53 54 58 63 67 69 69 69 71 73 74 73 71 69 67 68 71 74 75 75 75 74 75 77 79 81 83 84 84 85
78 77 76 75 74 73 73 72 73 75 76 76 77 77 77 77 78 79 77 73 69 66 64 60 55 51 48 44 39 39 42 44 47 48 44 37 36 34 26 21 24 27 24 24 31 37 41 47 52 56 57 57 57 56 55 53 55 60 63 65 65 65 67 70 73 73 71 68 66 68 71 73 74 74 74 75 76 78 80 81 83 84 84 84 85
79 78 77 77 76 75 75 76 78 79 79 79 79 79 79 80 82 81 78 73 69 66 64 61 57 53 48 44 40 39 42 46 49 50 47 43 42 35 23 15 23 30 31 31 35 38 41 45 50 53 56 57 56 56 56 56 58 62 64 64 63 64 66 69 71 70 67 66 67 70 72 74 74 74 75 77 79 81 82 83 83 83 83 84 85
84 83 82 81 81 81 82 83 82 82 81 81 80 80 81 84 84 81 76 73 70 66 64 62 59 55 50 45 42 41 43 47 52 53 50 47 45 40 33 30 33 40 42 41 41 44 47 50 52 54 57 59 59 59 59 60 62 64 64 64 64 65 67 68 67 65 65 66 69 72 74 75 75 76 77 79 81 82 83 83 83 83 83 84 85
89 89 89 88 87 87 87 86 85 84 84 83 82 82 84 83 80 76 74 72 69 65 63 61 58 56 52 48 44 43 44 49 55 58 56 52 48 47 46 43 43 50 54 54 54 57 60 60 60 61 61 62 63 63 63 64 65 65 65 64 63 63 64 64 63 64 67 70 73 75 76 77 77 77 77 79 82 83 83 83 83 84 84 84 84
93 93 93 92 91 90 89 88 87 87 86 86 85 85 84 81 77 75 74 71 67 64 62 60 57 55 52 50 48 46 46 49 55 61 63 60 56 57 56 52 52 56 60 62 63 64 64 63 63 64 64 64 66 66 66 66 65 64 63 62 61 61 62 63 65 68 71 72 74 76 76 77 77 77 78 81 83 83 83 83 84 84 84 84 85
93 93 93 93 92 91 90 89 89 89 89 89 88 87 83 79 76 76 74 70 66 64 62 60 58 55 53 52 52 50 49 50 55 62 67 68 68 68 68 67 65 64 65 65 66 67 67 66 66 67 67 67 68 67 66 65 63 62 61 62 62 63 65 67 69 70 72 73 74 75 76 77 78 79 81 83 83 83 83 83 83 84 84 85 86
91 91 92 92 92 92 91 91 91 91 90 90 90 86 81 76 75 74 72 69 67 65 63 60 59 58 55 54 54 54 53 52 55 61 69 73 75 76 76 75 74 73 72 70 68 68 68 68 68 68 67 67 66 65 64 62 61 61 62 63 65 67 68 69 70 71 72 73 75 76 77 79 80 81 82 83 82 82 83 84 84 85 85 86 87
91 91 92 92 92 92 92 92 91 91 90 90 89 84 79 75 73 72 70 68 66 65 63 61 60 60 59 57 57 57 56 54 55 60 66 72 76 77 78 78 77 76 74 73 71 69 68 68 67 67 66 64 63 62 62 62 62 63 65 67 68 70 71 71 72 73 74 75 77 79 80 81 82 83 83 83 83 84 85 85 85 85 86 86 87
91 91 91 92 92 92 91 91 91 90 90 89 87 83 79 76 73 71 69 67 64 62 62 60 59 59 59 59 58 58 57 56 55 58 64 69 73 75 76 76 76 75 74 73 71 69 68 67 66 65 64 63 62 62 63 64 65 66 68 69 70 71 72 73 74 76 77 79 81 82 82 84 84 84 84 84 85 85 86 86 85 86 86 86 87
Wind_Direction
239 239 239 240 241 243 246 248 250 252 254 257 259 261 262 263 266 269 270 272 275 277 280 284 287 290 291 293 296 299 302 304 305 307 310 313 316 318 319 321 324 325 325 325 326 330 334 337 338 338 338 341 344 345 345 345 345 345 345 344 341 337 335 335 335 338 343 348 350 353 357 1 5 7 7 8 7 6 3 1 359 357 355 353 351
238 238 239 239 241 242 244 246 247 249 253 256 258 260 262 263 265 267 269 271 274 276 280 283 286 288 289 291 293 296 299 301 302 305 308 310 312 314 315 318 320 322 322 321 322 326 330 333 335 335 335 337 340 341 342 343 343 343 343 343 341 338 334 334 336 339 343 345 348 351 354 358 2 4 5 6 5 4 3 1 358 356 354 353 351
240 240 241 241 241 242 244 246 248 249 252 254 257 259 260 262 264 265 268 270 273 277 280 283 284 285 287 289 291 294 297 300 301 302 305 307 308 310 312 315 317 319 319 319 320 322 326 329 331 331 333 334 335 337 339 340 340 341 341 341 340 337 333 332 334 338 340 343 346 349 350 354 359 1 2 3 3 2 1 0 358 355 352 352 351
241 241 242 243 243 245 246 248 250 251 253 256 257 259 260 262 264 266 269 271 273 277 280 281 282 283 285 288 290 292 295 298 299 301 303 304 305 307 310 312 314 316 317 317 318 320 323 326 328 329 330 331 332 333 336 337 337 337 338 339 338 336 332 330 331 335 337 339 344 348 348 351 355 358 360 1 1 1 359 358 357 354 352 351 351
241 241 242 243 244 246 247 249 250 253 255 257 258 260 261 263 265 268 270 273 275 277 279 281 281 282 284 286 288 290 293 296 297 299 301 302 304 306 308 310 311 313 314 315 316 318 321 324 325 326 327 328 329 330 332 334 335 334 335 336 336 334 330 327 328 330 331 334 342 346 347 348 353 356 357 358 359 359 358 357 356 354 351 350 350
241 240 241 242 243 244 246 248 250 253 256 258 260 262 264 266 268 270 272 274 275 277 278 280 281 282 284 286 288 290 293 295 296 298 300 302 303 305 306 307 309 310 311 312 313 316 319 322 322 323 324 326 326 327 328 330 331 332 332 333 334 332 328 325 324 326 326 328 337 344 345 346 350 353 355 356 357 357 356 356 355 353 350 350 350
242 241 242 243 243 245 246 247 250 253 255 258 260 262 265 267 269 271 272 273 275 276 277 278 279 281 284 286 288 291 293 294 296 298 299 301 303 303 304 305 306 308 309 310 312 314 317 319 320 320 322 323 323 324 325 326 328 329 329 330 331 329 326 323 321 321 322 323 331 339 343 344 347 350 353 355 355 355 355 354 353 351 349 349 349
244 244 245 246 247 247 248 250 251 253 255 257 259 261 263 266 267 269 270 272 273 275 276 277 279 281 283 286 288 291 293 294 296 297 299 300 301 301 302 303 304 306 308 309 310 312 315 316 317 318 320 321 320 321 322 323 325 326 327 328 328 327 325 322 319 318 318 319 325 334 340 342 344 347 351 353 353 353 353 352 352 351 349 348 348
246 247 248 249 251 252 253 254 255 255 256 257 258 260 261 263 265 267 269 270 272 274 275 277 279 280 283 286 288 290 292 293 295 297 298 299 299 299 300 301 302 304 306 307 308 310 312 314 315 316 317 318 318 319 320 321 323 324 324 326 326 324 323 320 317 315 315 315 320 329 336 340 341 344 348 351 352 351 350 350 350 350 349 348 347
248 249 250 251 253 255 256 257 258 258 258 258 260 261 262 263 265 266 267 269 271 273 275 277 279 281 283 285 287 289 290 292 293 295 296 296 297 297 298 299 301 302 304 305 306 308 310 312 313 313 314 315 315 316 317 318 320 321 322 323 323 321 321 320 316 313 312 312 315 324 332 336 338 342 346 349 350 350 349 348 349 349 348 347 346
250 251 252 253 255 257 258 259 260 260 261 261 262 263 264 266 267 268 268 269 271 274 276 277 280 282 284 286 287 288 289 291 292 293 293 294 294 295 296 298 299 301 303 303 304 306 308 310 310 311 312 312 313 314 315 316 317 318 320 321 320 319 319 319 316 311 310 310 311 318 327 332 335 340 344 346 347 347 347 347 347 347 347 346 346
251 253 254 255 256 258 259 260 262 263 263 264 265 266 268 270 271 272 272 273 275 276 277 279 281 283 284 285 286 287 288 289 290 290 291 292 293 294 295 297 298 300 301 301 303 305 306 307 308 308 309 309 310 311 312 313 314 316 317 318 317 315 316 318 316 311 308 307 307 312 322 327 332 337 341 343 345 345 346 346 345 345 346 345 344
251 253 255 256 257 258 259 260 262 263 264 266 267 268 270 271 272 273 274 275 276 277 278 280 281 282 283 284 285 286 287 288 288 289 290 291 292 293 294 296 297 297 298 300 302 303 304 305 305 306 306 307 308 309 310 311 312 313 314 315 312 310 313 318 317 311 306 305 305 309 318 324 329 335 340 342 343 343 344 344 343 343 344 343 343
251 253 254 256 257 258 259 260 261 263 265 266 267 269 269 270 271 272 273 275 276 277 278 279 280 281 281 282 284 286 287 288 288 289 290 290 291 292 293 293 294 295 297 299 300 302 302 303 303 303 304 304 305 306 308 309 309 310 312 312 308 306 311 317 316 311 306 305 304 308 316 321 328 335 339 341 341 341 342 343 341 341 342 342 341
253 254 255 256 257 258 259 260 261 263 265 267 268 268 268 269 270 271 273 274 275 276 277 278 279 279 280 282 284 285 286 286 287 287 288 289 289 290 291 292 292 294 296 298 298 299 300 300 300 301 302 302 303 304 306 307 306 306 308 308 304 303 309 314 314 310 306 303 303 308 315 320 328 335 339 339 340 340 341 341 340 339 341 341 340
255 256 257 258 259 260 261 262 263 265 267 268 268 268 268 269 270 271 273 274 275 276 277 278 279 280 280 281 282 282 283 284 284 285 285 286 287 288 289 290 291 293 295 295 296 297 297 298 298 299 300 301 301 303 305 304 302 303 304 303 299 301 306 310 310 307 304 302 302 308 315 321 329 335 337 338 338 338 339 339 338 339 340 340 339
259 260 260 261 262 263 264 265 266 267 268 268 269 270 270 271 271 272 273 274 275 276 277 277 278 279 280 280 280 280 281 281 282 282 283 284 284 285 286 287 289 291 292 292 293 295 295 296 296 297 298 299 301 302 302 300 299 300 300 297 296 298 303 306 306 304 302 298 299 307 315 322 329 334 335 336 337 337 337 337 337 338 338 338 338
260 261 262 263 264 265 266 267 267 267 268 269 270 271 272 273 274 274 274 275 276 276 276 277 277 278 278 279 279 280 281 281 282 282 283 283 284 284 285 287 288 289 289 290 292 293 293 293 294 295 297 299 301 301 299 297 296 296 295 293 294 296 299 301 302 301 298 295 297 307 316 324 330 333 334 335 336 336 336 336 336 336 337 337 337
260 262 263 264 265 266 267 268 268 269 270 271 272 273 274 275 276 277 278 278 278 278 279 279 279 279 279 280 281 282 283 283 283 284 284 284 285 285 286 287 288 288 288 289 290 290 291 292 293 295 298 300 301 298 295 294 293 292 291 291 292 294 296 298 298 298 295 292 295 306 316 324 329 332 333 333 334 335 335 334 335 335 336 336 337
261 262 263 264 265 266 267 268 270 271 272 273 274 275 275 276 277 278 279 280 280 281 281 281 282 283 283 283 283 283 283 283 284 284 284 285 286 287 288 288 288 287 287 288 288 289 290 292 293 296 299 301 299 295 293 291 288 288 289 290 292 293 294 295 295 295 293 290 294 306 316 323 328 330 331 332 333 333 333 333 333 334 335 335 336
262 263 264 265 266 267 268 268 269 271 272 273 275 276 277 277 278 279 280 281 282 283 283 284 284 285 286 286 286 285 284 284 285 285 286 287 288 289 290 289 288 286 286 287 287 288 290 292 294 297 299 299 296 292 288 285 285 287 289 291 293 293 293 293 293 292 291 289 293 306 316 323 326 328 329 331 332 332 332 331 331 332 334 334 335
263 265 266 267 268 269 270 271 272 272 274 275 276 277 278 279 280 280 281 282 283 283 284 285 285 286 287 287 288 288 288 288 288 288 288 289 290 291 291 290 288 288 287 287 288 289 290 292 294 296 297 295 291 286 281 281 285 289 292 293 295 295 295 295 294 292 290 288 293 306 316 321 324 326 329 330 331 331 330 328 328 330 332 333 334
263 265 267 268 270 271 272 273 274 275 276 277 278 278 279 280 280 280 280 281 282 283 285 285 286 287 289 289 290 289 289 290 291 290 290 290 290 289 289 290 290 289 288 288 289 290 291 292 295 296 294 289 281 277 278 283 288 291 294 295 296 297 299 300 298 295 291 287 293 305 314 319 322 326 329 329 329 329 328 326 326 329 330 332 334
264 265 266 268 270 271 272 273 274 275 276 277 278 279 280 281 281 281 282 282 282 284 285 286 288 289 290 291 291 290 289 290 290 290 290 289 288 287 288 288 288 287 286 287 288 292 293 293 293 292 288 279 272 274 280 286 288 291 293 295 296 300 303 305 302 298 292 288 293 304 312 317 322 326 328 327 327 328 327 324 325 327 329 330 333
265 266 266 267 269 270 271 272 273 274 275 276 276 277 279 280 281 282 283 283 284 284 285 286 288 289 290 290 290 290 290 289 289 288 288 287 287 287 286 285 283 283 283 282 284 288 289 287 286 287 283 275 272 275 279 283 285 287 291 294 298 303 307 308 306 300 293 290 295 304 312 318 322 325 325 325 326 327 326 323 324 326 327 329 332
265 266 266 267 268 269 270 271 272 273 274 274 274 275 276 278 279 281 282 283 284 284 285 285 286 287 288 289 290 291 292 291 289 288 287 286 286 286 285 282 280 281 281 279 279 282 283 283 285 286 281 274 274 276 279 280 281 285 290 294 299 304 309 311 309 301 295 294 299 306 312 317 320 323 323 323 325 326 325 323 323 325 326 328 330
264 265 266 266 267 268 269 271 272 272 273 274 274 274 275 276 277 279 280 281 283 284 286 287 287 288 288 288 289 291 292 291 290 288 287 285 284 284 284 282 280 279 279 278 278 280 283 286 291 290 280 273 275 278 281 280 279 283 289 294 298 302 305 310 311 304 299 301 304 307 311 315 319 321 322 322 324 325 324 323 323 324 325 327 329
263 264 265 266 267 268 270 271 273 274 275 275 276 276 276 277 277 278 279 281 282 284 286 287 288 289 289 289 289 289 289 289 287 286 284 283 281 280 281 281 278 275 274 277 281 284 284 286 293 294 283 275 278 283 285 281 279 283 288 292 298 303 306 310 312 309 305 305 307 309 311 314 317 320 321 322 323 324 323 323 324 324 324 326 327
263 265 266 267 268 269 271 273 274 276 277 277 278 278 278 278 278 279 279 280 282 283 285 286 287 288 289 289 290 289 288 287 286 285 283 283 282 280 279 279 278 275 274 277 283 287 287 288 290 290 285 283 286 287 287 284 280 280 285 290 296 305 310 311 311 309 306 306 308 310 311 312 315 318 320 320 322 323 323 323 323 323 323 324 326
264 266 267 268 270 271 272 274 275 277 278 279 279 279 279 278 278 278 279 280 281 282 284 285 286 287 288 289 289 289 288 287 287 286 283 282 282 282 280 280 279 278 279 282 284 283 283 284 284 283 283 286 289 289 289 286 280 278 283 290 295 300 303 305 306 308 307 305 306 308 309 310 313 316 318 319 320 322 323 322 322 322 322 323 324
265 267 268 270 271 272 273 275 276 277 279 279 279 279 279 279 279 279 279 280 280 282 283 284 286 287 288 289 289 287 286 286 286 285 283 282 282 283 282 281 279 279 281 283 279 274 275 277 278 280 282 284 286 287 289 287 281 278 281 284 288 291 294 295 299 303 306 304 303 304 306 309 311 313 315 317 319 321 321 321 320 320 320 321 322
266 267 269 270 272 273 274 275 276 277 278 279 280 280 280 279 279 279 279 280 280 281 282 284 285 287 288 288 287 285 284 284 284 282 281 280 281 283 282 280 278 277 277 277 275 270 270 273 276 279 281 282 282 283 285 285 283 281 279 279 285 291 291 289 291 296 300 301 301 300 302 305 308 311 312 315 318 319 319 320 319 318 319 319 321
267 268 269 270 272 273 273 275 276 277 278 279 280 280 280 280 280 280 280 280 280 281 282 283 284 286 287 287 286 282 281 282 282 279 278 278 279 280 280 278 275 272 271 272 274 270 268 272 276 278 279 282 282 280 280 281 279 275 273 278 288 292 286 281 284 289 293 296 297 296 297 299 303 306 309 312 315 317 318 318 317 316 316 318 320
268 269 270 270 271 272 272 273 274 275 277 277 278 279 279 279 279 279 279 279 280 280 281 282 282 284 286 287 286 281 278 279 279 277 276 277 277 277 276 274 271 270 268 267 268 268 265 267 272 275 277 281 281 277 276 275 269 265 270 278 285 286 279 275 278 284 288 290 291 292 294 296 298 301 306 309 312 315 317 316 315 314 314 316 319
269 270 270 271 271 272 272 272 273 274 275 275 276 276 277 277 277 278 278 278 279 279 279 280 281 283 285 286 284 279 276 275 275 273 274 275 277 276 274 272 272 274 272 269 274 278 267 258 260 264 268 275 280 278 274 270 265 265 273 278 280 280 277 274 276 281 285 285 286 288 291 293 295 298 303 307 310 313 315 314 312 312 313 315 318
269 270 270 271 271 272 272 272 273 274 275 275 276 277 277 277 277 277 278 278 278 278 278 278 279 281 283 283 279 273 270 270 270 270 270 272 275 275 273 271 271 272 272 273 280 283 270 255 253 256 261 272 281 279 272 267 265 267 272 275 275 276 276 273 272 276 278 280 282 284 287 290 293 296 301 305 308 311 312 311 309 310 312 315 317
269 270 270 270 270 271 271 272 274 274 275 276 277 277 278 277 277 277 279 280 281 280 279 277 277 279 281 282 276 270 268 268 268 266 266 269 273 274 272 271 271 271 273 277 278 276 272 263 256 254 259 268 274 268 261 261 264 266 268 271 274 275 273 270 269 271 273 277 280 282 284 288 292 295 299 303 306 309 310 309 308 309 312 314 316
268 268 268 269 269 270 271 272 273 273 274 275 276 277 277 277 276 277 279 282 284 285 282 278 276 276 278 279 275 269 268 269 269 268 265 265 268 269 267 267 268 269 274 278 271 265 267 269 262 255 252 254 256 255 254 256 261 265 267 271 274 275 273 270 270 271 273 278 282 283 284 286 290 295 298 301 304 306 307 307 307 309 311 313 316
265 265 266 267 268 268 269 270 271 272 273 274 275 275 276 277 276 277 280 283 286 287 284 280 275 274 275 276 272 266 265 267 269 270 267 263 264 267 267 266 266 268 274 273 260 248 251 259 260 252 243 240 246 254 256 256 259 265 268 270 273 275 274 274 274 276 279 284 286 286 285 286 290 294 297 299 302 304 305 305 306 308 310 313 315
263 264 266 267 267 267 268 269 270 270 272 273 275 276 277 278 278 279 283 285 286 286 285 280 274 272 274 273 266 260 260 262 264 266 266 267 268 265 260 259 262 268 270 264 247 236 239 247 250 246 239 239 245 253 256 259 262 266 267 268 271 273 275 277 279 282 285 288 289 288 286 286 289 293 296 298 300 302 303 304 305 307 310 312 314
264 264 266 267 268 268 268 269 269 270 272 274 276 277 279 279 280 283 287 287 285 285 285 281 274 273 275 271 262 256 257 259 258 255 255 263 268 261 255 259 265 267 261 247 236 235 239 239 237 236 237 240 246 251 256 261 264 264 264 267 269 272 275 279 281 283 285 288 289 287 285 285 288 292 294 296 298 300 301 303 304 307 309 312 314
266 266 267 268 269 269 269 269 270 272 274 276 277 279 281 282 284 287 289 288 285 284 285 281 275 274 274 268 259 254 254 254 252 246 243 251 259 256 257 264 260 247 233 226 230 237 239 235 233 235 239 244 248 252 257 261 263 263 265 266 268 271 276 279 279 281 283 286 286 284 282 284 288 290 292 293 296 298 300 301 303 306 309 311 313
268 268 268 269 269 269 270 271 274 276 277 277 279 280 282 284 287 289 290 287 284 283 285 283 278 274 271 265 259 254 250 247 244 239 238 245 252 248 250 263 257 242 241 252 254 248 242 237 236 237 241 244 248 252 256 260 261 262 264 266 269 274 277 277 277 279 282 283 282 281 282 285 287 289 290 292 295 297 299 300 303 306 309 310 312
268 268 268 269 269 270 272 274 277 278 278 278 279 280 282 285 288 290 289 286 283 282 283 282 279 274 269 263 258 253 246 242 240 236 232 238 244 238 224 230 247 244 241 249 255 254 248 243 240 239 240 245 250 254 257 259 259 261 265 270 274 276 276 275 277 279 280 280 280 281 283 285 286 287 289 291 294 296 297 299 303 306 308 309 311
269 269 269 269 270 271 273 275 276 277 277 277 278 279 282 286 288 288 286 285 283 281 281 280 278 274 269 263 257 251 243 237 236 233 229 230 232 222 200 197 218 226 224 228 241 250 250 249 249 249 250 253 257 259 260 261 262 265 270 274 274 274 274 274 276 277 277 278 279 281 282 284 285 287 288 291 293 295 297 300 303 306 307 308 310
269 270 270 270 270 271 272 274 274 275 275 275 276 279 284 287 287 286 285 284 282 279 278 277 276 273 269 264 258 251 242 234 231 229 227 223 217 204 192 193 207 218 221 227 237 245 249 251 254 255 256 258 259 261 263 265 267 270 272 272 271 271 271 271 272 274 276 278 280 281 282 283 285 286 288 290 292 294 297 300 303 304 306 307 308
268 269 269 270 270 271 272 273 273 274 274 275 278 282 286 287 286 285 285 283 279 276 275 274 272 269 267 264 260 253 244 235 229 226 225 222 214 206 205 210 216 220 224 231 239 245 250 253 256 257 257 259 260 262 265 267 268 270 270 269 268 267 267 269 272 274 276 278 278 279 281 282 284 285 287 289 291 294 297 300 302 303 304 305 307
266 268 268 269 270 270 271 272 272 273 274 277 281 285 287 286 285 285 284 281 276 274 272 270 268 266 264 262 260 257 250 242 233 227 225 226 224 223 225 230 233 234 237 242 246 249 251 253 255 258 259 260 262 264 266 268 268 268 267 266 266 266 268 270 272 274 274 276 277 278 280 282 283 285 287 289 291 294 297 299 300 301 303 304 306
265 267 268 269 270 271 271 272 273 274 276 280 283 286 286 285 285 285 283 279 275 273 271 269 267 265 263 260 259 258 256 250 241 232 229 229 231 234 237 239 242 245 249 251 253 255 255 256 258 260 262 263 266 267 268 268 268 266 264 263 264 265 267 269 270 272 273 275 277 278 280 281 283 284 286 289 291 294 296 297 299 300 302 304 306
266 267 269 270 271 272 273 274 275 277 279 282 285 286 285 284 284 283 282 278 275 272 271 269 267 265 263 261 260 259 257 254 247 240 235 235 237 240 244 246 248 250 254 257 258 259 259 259 260 262 264 265 266 266 265 265 264 263 261 261 262 264 266 268 270 272 274 275 276 278 279 280 282 284 286 288 291 293 295 296 298 300 302 303 305
267 268 269 270 272 273 275 276 277 278 280 283 284 284 284 283 283 282 280 277 274 271 270 269 267 266 265 263 261 259 257 255 251 246 242 241 243 246 249 251 253 254 256 257 259 259 260 260 261 261 262 262 262 262 261 261 261 260 260 261 263 264 267 269 270 272 273 274 276 277 278 279 281 284 286 289 291 293 294 296 297 299 301 303 305
Height
10971 10973 10974 10976 10976 10977 10978 10979 10980 10981 10982 10983 10984 10984 10985 10985 10985 10985 10985 10984 10984 10984 10984 10984 10983 10983 10982 10982 10981 10980 10979 10977 10976 10976 10976 10975 10975 10975 10974 10973 10972 10970 10968 10966 10964 10963 10962 10961 10959 10956 10954 10952 10951 10949 10947 10944 10941 10938 10936 10934 10931 10929 10926 10924 10921 10918 10916 10915 10914 10912 10909 10905 10901 10897 10894 10891 10889 10886 10883 10880 10877 10874 10871 10868 10864
10968 10970 10972 10973 10974 10975 10976 10976 10978 10979 10980 10981 10981 10982 10983 10982 10983 10982 10981 10982 10981 10981 10981 10981 10981 10980 10980 10979 10978 10977 10976 10975 10974 10973 10973 10972 10972 10972 10971 10971 10970 10968 10966 10964 10962 10961 10960 10959 10957 10955 10953 10951 10949 10947 10944 10941 10938 10935 10933 10931 10928 10926 10923 10921 10918 10915 10913 10911 10910 10908 10905 10902 10898 10894 10891 10888 10886 10883 10880 10877 10874 10870 10867 10863 10860
10965 10967 10968 10969 10970 10972 10973 10973 10975 10976 10977 10978 10979 10979 10980 10979 10979 10978 10978 10979 10978 10978 10978 10978 10978 10977 10977 10977 10976 10975 10974 10973 10971 10970 10970 10969 10969 10969 10968 10967 10967 10965 10963 10961 10959 10958 10957 10956 10955 10952 10950 10948 10946 10944 10942 10939 10936 10932 10930 10927 10925 10922 10919 10917 10915 10912 10910 10908 10906 10904 10901 10899 10894 10890 10887 10884 10881 10879 10876 10873 10870 10866 10862 10859 10855
10962 10963 10964 10965 10967 10968 10969 10970 10972 10973 10974 10975 10975 10976 10976 10976 10976 10975 10975 10975 10975 10975 10975 10975 10975 10974 10974 10974 10973 10972 10971 10970 10969 10967 10967 10966 10965 10965 10964 10964 10963 10962 10960 10958 10956 10955 10954 10953 10951 10949 10947 10945 10943 10941 10939 10936 10933 10930 10927 10925 10922 10919 10916 10914 10912 10909 10907 10905 10903 10901 10898 10895 10891 10887 10883 10880 10877 10874 10871 10869 10865 10862 10858 10854 10850
10958 10959 10960 10962 10963 10963 10965 10966 10968 10969 10970 10971 10971 10972 10972 10972 10973 10972 10972 10972 10972 10972 10972 10972 10971 10971 10971 10970 10970 10969 10968 10967 10966 10964 10963 10962 10962 10961 10960 10960 10959 10958 10957 10955 10952 10951 10950 10949 10947 10945 10943 10941 10939 10937 10935 10933 10930 10927 10924 10921 10919 10916 10913 10911 10909 10906 10904 10902 10900 10898 10896 10893 10889 10884 10880 10877 10874 10871 10868 10865 10861 10857 10853 10849 10844
10955 10956 10956 10957 10958 10959 10960 10962 10963 10965 10966 10966 10967 10967 10968 10968 10969 10969 10968 10968 10968 10968 10968 10968 10968 10967 10967 10967 10966 10965 10965 10963 10962 10961 10960 10959 10958 10957 10956 10955 10955 10954 10954 10951 10949 10947 10946 10945 10943 10941 10939 10937 10935 10933 10930 10928 10926 10924 10920 10918 10915 10913 10910 10908 10905 10903 10901 10899 10898 10896 10894 10891 10887 10883 10878 10874 10870 10867 10864 10861 10857 10853 10849 10844 10840
10951 10951 10952 10953 10953 10954 10955 10957 10959 10960 10961 10961 10962 10962 10963 10964 10964 10964 10965 10964 10964 10964 10964 10964 10964 10964 10964 10963 10962 10962 10961 10960 10959 10958 10957 10955 10954 10953 10952 10951 10950 10950 10949 10948 10945 10944 10942 10941 10939 10936 10935 10933 10930 10928 10926 10924 10922 10920 10917 10914 10912 10909 10906 10903 10901 10899 10897 10896 10894 10893 10891 10888 10885 10881 10877 10872 10868 10864 10860 10857 10853 10849 10844 10840 10835
10946 10947 10948 10949 10948 10949 10951 10953 10955 10956 10956 10956 10957 10958 10958 10959 10960 10960 10960 10960 10960 10960 10960 10960 10960 10960 10960 10959 10959 10958 10957 10956 10955 10954 10953 10951 10949 10948 10947 10946 10945 10945 10944 10943 10941 10940 10938 10936 10934 10932 10930 10929 10926 10923 10922 10919 10917 10915 10913 10910 10907 10905 10902 10899 10897 10895 10893 10891 10890 10888 10886 10884 10882 10878 10874 10869 10865 10861 10857 10854 10850 10846 10841 10836 10831
10942 10943 10944 10944 10944 10945 10947 10949 10950 10951 10951 10951 10952 10953 10954 10954 10955 10956 10956 10956 10956 10956 10956 10956 10956 10956 10956 10955 10955 10954 10953 10952 10951 10949 10948 10947 10945 10943 10941 10941 10940 10940 10939 10938 10936 10935 10933 10932 10930 10928 10926 10924 10921 10919 10916 10914 10912 10910 10908 10906 10903 10900 10898 10895 10892 10890 10888 10887 10885 10884 10882 10880 10877 10874 10869 10865 10861 10858 10854 10850 10846 10842 10837 10832 10827
10938 10939 10939 10939 10940 10942 10943 10944 10945 10946 10947 10947 10948 10949 10949 10950 10951 10951 10951 10952 10951 10952 10952 10952 10952 10952 10951 10951 10950 10949 10948 10947 10946 10945 10943 10942 10940 10938 10936 10935 10935 10935 10934 10932 10931 10930 10929 10927 10925 10923 10922 10920 10917 10914 10912 10909 10907 10905 10903 10901 10899 10896 10893 10891 10888 10886 10884 10882 10881 10879 10877 10875 10873 10869 10865 10861 10857 10854 10850 10846 10841 10836 10832 10827 10822
10933 10934 10933 10935 10936 10937 10938 10939 10940 10941 10942 10943 10944 10944 10945 10946 10946 10946 10946 10947 10947 10947 10947 10947 10947 10947 10947 10946 10945 10944 10943 10942 10941 10939 10938 10936 10934 10932 10930 10929 10929 10929 10929 10927 10926 10925 10924 10922 10920 10918 10917 10915 10913 10910 10908 10905 10903 10901 10899 10896 10894 10891 10889 10887 10884 10882 10880 10878 10877 10875 10873 10870 10868 10864 10860 10856 10853 10849 10845 10840 10835 10831 10826 10821 10816
10928 10928 10928 10931 10932 10932 10933 10934 10935 10935 10936 10938 10939 10940 10941 10941 10940 10940 10941 10941 10942 10942 10942 10942 10942 10942 10941 10940 10939 10939 10938 10936 10935 10933 10932 10930 10929 10927 10925 10924 10923 10923 10923 10922 10921 10920 10919 10917 10915 10913 10911 10909 10908 10905 10903 10900 10898 10896 10895 10892 10889 10887 10885 10882 10880 10877 10875 10873 10872 10871 10868 10866 10863 10860 10855 10851 10848 10844 10840 10834 10829 10825 10821 10815 10811
10922 10922 10923 10925 10926 10926 10928 10929 10929 10930 10931 10933 10934 10935 10936 10935 10935 10934 10935 10935 10937 10936 10936 10936 10937 10936 10935 10934 10933 10933 10932 10930 10929 10928 10926 10925 10923 10922 10920 10918 10916 10916 10916 10916 10915 10914 10913 10911 10909 10907 10905 10903 10902 10900 10898 10895 10892 10891 10890 10888 10885 10882 10880 10878 10876 10873 10871 10869 10868 10866 10863 10861 10858 10854 10850 10846 10842 10838 10834 10828 10824 10819 10815 10810 10805
10916 10917 10918 10919 10920 10921 10922 10923 10924 10924 10926 10927 10928 10929 10929 10929 10928 10928 10929 10930 10931 10930 10930 10931 10931 10930 10929 10928 10928 10927 10925 10924 10922 10921 10920 10918 10917 10916 10914 10912 10910 10909 10909 10910 10909 10908 10907 10905 10903 10901 10899 10897 10896 10894 10893 10890 10886 10885 10884 10882 10880 10877 10875 10873 10870 10868 10866 10865 10863 10861 10858 10855 10853 10849 10844 10840 10837 10833 10828 10823 10819 10814 10810 10805 10799
10910 10911 10912 10913 10914 10915 10917 10918 10919 10920 10921 10922 10922 10922 10922 10922 10922 10922 10923 10924 10924 10924 10924 10924 10924 10923 10923 10923 10923 10921 10919 10917 10915 10914 10913 10912 10911 10910 10908 10906 10904 10903 10902 10902 10902 10902 10900 10898 10895 10894 10892 10891 10889 10888 10887 10884 10880 10879 10878 10877 10874 10871 10869 10867 10865 10863 10861 10860 10858 10856 10853 10850 10848 10844 10840 10836 10833 10828 10823 10819 10814 10810 10805 10800 10795
10904 10905 10906 10907 10908 10909 10910 10912 10914 10915 10915 10914 10914 10914 10914 10915 10916 10917 10917 10917 10918 10918 10918 10917 10916 10916 10916 10917 10916 10914 10913 10911 10908 10906 10906 10905 10904 10904 10902 10900 10898 10897 10896 10894 10894 10895 10893 10890 10888 10886 10885 10884 10882 10881 10880 10877 10873 10872 10872 10871 10868 10866 10864 10862 10860 10858 10856 10855 10853 10851 10848 10846 10843 10839 10835 10832 10828 10823 10818 10814 10809 10805 10800 10795 10790
10897 10898 10899 10900 10901 10902 10904 10906 10907 10908 10907 10906 10905 10905 10907 10908 10909 10910 10911 10911 10911 10912 10911 10911 10910 10909 10909 10908 10908 10907 10905 10904 10902 10900 10898 10898 10897 10897 10896 10894 10893 10891 10889 10886 10886 10886 10886 10883 10881 10879 10878 10877 10876 10875 10873 10870 10866 10865 10865 10865 10862 10860 10859 10857 10855 10853 10852 10850 10848 10846 10844 10841 10838 10834 10830 10827 10823 10819 10814 10809 10804 10800 10795 10790 10784
10891 10892 10893 10894 10894 10895 10897 10899 10899 10899 10899 10899 10899 10899 10900 10900 10901 10902 10903 10904 10904 10903 10903 10903 10903 10902 10901 10900 10899 10899 10898 10897 10894 10892 10890 10889 10889 10889 10889 10888 10887 10885 10882 10879 10878 10878 10877 10875 10873 10872 10871 10871 10870 10868 10865 10863 10860 10859 10859 10858 10856 10855 10854 10852 10849 10848 10847 10845 10843 10841 10839 10836 10833 10829 10825 10821 10818 10814 10809 10804 10800 10795 10791 10785 10779
10885 10886 10887 10887 10888 10889 10891 10891 10891 10891 10893 10893 10893 10893 10894 10894 10894 10894 10895 10895 10896 10895 10895 10895 10894 10893 10893 10893 10892 10892 10891 10890 10887 10884 10882 10880 10880 10880 10881 10881 10879 10876 10874 10872 10870 10869 10869 10868 10866 10864 10865 10864 10863 10861 10859 10856 10854 10853 10852 10852 10850 10849 10848 10847 10844 10842 10841 10840 10839 10837 10834 10831 10828 10824 10820 10816 10812 10808 10804 10799 10795 10791 10786 10781 10775
10880 10880 10880 10881 10882 10883 10884 10885 10885 10885 10886 10886 10887 10887 10887 10888 10888 10888 10887 10887 10888 10888 10887 10887 10886 10885 10884 10884 10885 10885 10883 10882 10880 10877 10874 10872 10871 10871 10873 10873 10870 10868 10867 10866 10863 10861 10862 10862 10859 10857 10858 10858 10855 10854 10853 10850 10848 10847 10846 10845 10844 10843 10842 10841 10839 10837 10836 10834 10833 10832 10829 10826 10823 10819 10815 10811 10807 10803 10798 10794 10790 10785 10781 10776 10770
10874 10874 10874 10875 10876 10877 10878 10879 10879 10880 10880 10880 10880 10880 10880 10881 10881 10881 10881 10881 10881 10880 10880 10879 10879 10877 10876 10875 10876 10876 10875 10874 10873 10870 10866 10865 10864 10864 10864 10863 10861 10859 10859 10859 10858 10856 10855 10855 10853 10851 10851 10851 10849 10847 10846 10844 10842 10841 10840 10839 10839 10837 10836 10835 10833 10832 10830 10829 10828 10826 10824 10820 10817 10814 10810 10806 10801 10797 10792 10788 10785 10781 10776 10771 10765
10867 10868 10869 10869 10870 10871 10872 10872 10873 10874 10874 10874 10874 10874 10873 10874 10874 10874 10874 10874 10874 10873 10873 10872 10872 10870 10869 10868 10867 10866 10866 10866 10866 10863 10860 10858 10857 10856 10856 10854 10851 10851 10851 10851 10851 10851 10849 10848 10847 10845 10844 10844 10843 10841 10840 10838 10837 10835 10834 10833 10832 10832 10830 10829 10827 10826 10825 10823 10822 10821 10818 10815 10812 10808 10804 10800 10795 10791 10787 10783 10780 10776 10772 10766 10761
10861 10862 10862 10863 10864 10864 10865 10866 10866 10867 10867 10867 10867 10867 10867 10867 10867 10867 10867 10868 10868 10867 10866 10865 10865 10863 10862 10861 10860 10859 10858 10858 10858 10856 10853 10851 10850 10848 10847 10845 10842 10842 10843 10843 10844 10844 10843 10842 10841 10839 10838 10838 10837 10835 10834 10833 10830 10829 10828 10827 10827 10826 10825 10823 10821 10819 10819 10818 10817 10815 10812 10809 10806 10802 10798 10794 10790 10786 10783 10779 10775 10772 10767 10762 10756
10855 10855 10856 10857 10857 10858 10859 10859 10860 10860 10861 10860 10860 10860 10859 10860 10860 10860 10860 10860 10861 10860 10859 10857 10858 10857 10856 10855 10854 10852 10852 10852 10851 10849 10846 10843 10842 10840 10839 10838 10835 10833 10834 10835 10836 10838 10837 10836 10835 10833 10832 10832 10831 10830 10829 10827 10824 10823 10822 10822 10821 10821 10819 10817 10815 10813 10812 10812 10811 10809 10807 10803 10800 10796 10793 10789 10785 10782 10778 10774 10771 10767 10763 10757 10752
10848 10849 10849 10850 10851 10851 10852 10853 10853 10853 10854 10854 10854 10853 10852 10853 10852 10852 10852 10852 10853 10853 10852 10851 10851 10851 10850 10849 10847 10845 10846 10847 10846 10844 10841 10837 10834 10832 10831 10830 10827 10827 10828 10829 10830 10832 10831 10829 10828 10828 10827 10827 10826 10824 10823 10821 10819 10817 10817 10817 10817 10816 10814 10811 10809 10807 10806 10805 10804 10803 10800 10797 10794 10791 10787 10784 10781 10777 10773 10770 10766 10762 10758 10753 10748
10841 10842 10843 10843 10844 10845 10845 10846 10846 10846 10847 10847 10848 10847 10846 10846 10845 10845 10845 10845 10845 10845 10845 10845 10845 10845 10844 10842 10839 10839 10840 10840 10839 10837 10835 10831 10827 10824 10822 10820 10820 10822 10823 10823 10823 10826 10825 10823 10822 10822 10822 10822 10821 10819 10817 10815 10814 10813 10812 10812 10811 10810 10808 10806 10804 10802 10800 10799 10798 10796 10794 10792 10789 10786 10782 10779 10776 10772 10769 10765 10762 10758 10754 10749 10744
10834 10835 10835 10836 10837 10837 10838 10838 10839 10839 10840 10840 10840 10840 10840 10839 10839 10838 10837 10837 10837 10837 10837 10837 10838 10837 10837 10836 10834 10833 10833 10833 10832 10830 10827 10824 10821 10818 10815 10813 10814 10815 10816 10816 10817 10820 10820 10818 10818 10818 10818 10817 10815 10813 10812 10811 10809 10808 10807 10806 10806 10805 10803 10800 10798 10796 10794 10793 10792 10790 10788 10786 10784 10781 10777 10774 10770 10767 10764 10760 10757 10753 10749 10744 10739
10827 10827 10828 10829 10830 10830 10831 10831 10831 10832 10832 10832 10832 10832 10831 10831 10831 10830 10829 10828 10829 10830 10830 10830 10829 10829 10828 10828 10828 10827 10827 10826 10824 10822 10820 10818 10815 10812 10810 10809 10808 10808 10810 10811 10812 10814 10815 10815 10815 10815 10815 10813 10811 10809 10807 10806 10805 10803 10802 10801 10800 10799 10797 10794 10792 10791 10789 10788 10786 10784 10782 10780 10778 10775 10772 10768 10765 10762 10759 10755 10752 10748 10744 10739 10734
10818 10819 10820 10821 10822 10823 10824 10824 10824 10825 10825 10825 10824 10824 10823 10823 10823 10822 10821 10821 10821 10822 10822 10822 10822 10821 10820 10821 10820 10820 10820 10818 10814 10812 10812 10811 10808 10806 10805 10804 10803 10802 10803 10806 10809 10810 10808 10807 10808 10810 10811 10810 10808 10805 10803 10802 10800 10798 10797 10796 10794 10792 10790 10789 10787 10786 10785 10783 10781 10779 10777 10775 10773 10770 10766 10763 10760 10758 10754 10750 10746 10743 10739 10734 10729
10811 10812 10813 10814 10815 10816 10817 10817 10817 10817 10818 10818 10817 10816 10815 10815 10816 10816 10814 10813 10813 10814 10814 10814 10814 10813 10813 10813 10812 10811 10812 10810 10805 10802 10802 10803 10801 10799 10798 10798 10797 10796 10797 10801 10806 10807 10802 10798 10798 10801 10803 10804 10803 10801 10799 10798 10796 10793 10791 10790 10788 10786 10785 10784 10783 10781 10780 10778 10777 10774 10772 10770 10768 10765 10761 10758 10755 10752 10748 10745 10741 10737 10734 10729 10725
10804 10805 10806 10807 10808 10808 10809 10809 10809 10810 10810 10810 10809 10809 10808 10807 10808 10808 10808 10806 10806 10806 10806 10806 10805 10805 10805 10806 10805 10804 10804 10802 10799 10795 10793 10792 10792 10792 10791 10791 10790 10790 10791 10794 10799 10802 10798 10791 10789 10790 10793 10796 10796 10794 10791 10791 10790 10788 10786 10785 10783 10782 10780 10779 10777 10776 10775 10773 10772 10770 10767 10765 10763 10760 10756 10753 10750 10747 10743 10740 10736 10732 10728 10724 10720
10797 10798 10799 10800 10800 10801 10801 10801 10801 10801 10801 10801 10800 10800 10800 10799 10799 10800 10800 10799 10799 10798 10797 10797 10797 10796 10796 10797 10798 10799 10797 10795 10793 10790 10785 10783 10784 10785 10783 10781 10781 10782 10784 10786 10791 10795 10792 10786 10781 10781 10783 10788 10789 10787 10784 10782 10782 10781 10781 10780 10779 10777 10775 10773 10772 10771 10770 10769 10767 10764 10762 10760 10758 10755 10751 10748 10745 10742 10738 10734 10731 10727 10723 10719 10715
10789 10790 10791 10792 10793 10793 10793 10793 10793 10793 10792 10792 10792 10791 10791 10791 10791 10791 10791 10791 10791 10791 10790 10789 10788 10788 10788 10789 10791 10792 10791 10789 10787 10783 10777 10774 10776 10777 10775 10772 10771 10773 10776 10778 10782 10785 10785 10781 10777 10775 10777 10780 10782 10781 10779 10777 10776 10776 10775 10774 10773 10772 10770 10769 10768 10767 10765 10764 10762 10759 10757 10755 10753 10750 10746 10743 10740 10737 10733 10729 10725 10722 10718 10714 10710
10780 10781 10782 10783 10784 10784 10784 10784 10784 10784 10784 10784 10783 10783 10783 10783 10782 10782 10782 10782 10783 10783 10782 10781 10780 10780 10781 10782 10783 10784 10784 10782 10780 10775 10769 10765 10767 10768 10767 10763 10762 10764 10768 10771 10774 10777 10778 10776 10772 10771 10772 10774 10775 10774 10773 10772 10771 10770 10768 10767 10767 10767 10765 10764 10763 10761 10759 10758 10757 10754 10752 10750 10748 10745 10741 10738 10735 10732 10728 10724 10720 10716 10713 10709 10705
10771 10772 10772 10773 10774 10774 10774 10775 10775 10775 10774 10774 10774 10774 10775 10774 10773 10773 10773 10773 10774 10774 10773 10771 10770 10771 10775 10777 10777 10776 10775 10773 10771 10767 10761 10758 10758 10758 10757 10756 10756 10756 10758 10761 10763 10767 10769 10768 10765 10765 10766 10768 10768 10768 10767 10766 10765 10763 10762 10761 10762 10761 10758 10757 10757 10755 10753 10752 10750 10748 10747 10745 10743 10740 10737 10733 10731 10727 10723 10719 10715 10711 10708 10704 10700
10760 10761 10762 10762 10763 10763 10763 10764 10764 10764 10764 10764 10764 10765 10765 10764 10764 10763 10763 10764 10764 10764 10764 10761 10760 10761 10766 10770 10770 10768 10766 10764 10761 10758 10754 10751 10751 10750 10748 10748 10749 10749 10749 10751 10754 10756 10758 10758 10758 10759 10760 10760 10760 10759 10758 10758 10757 10756 10756 10756 10756 10754 10752 10751 10751 10749 10747 10745 10744 10742 10741 10739 10737 10735 10732 10728 10725 10723 10719 10715 10710 10706 10703 10699 10695
10749 10750 10751 10751 10751 10752 10752 10753 10753 10754 10754 10754 10754 10755 10755 10755 10754 10754 10754 10755 10755 10755 10754 10752 10751 10751 10755 10759 10761 10759 10756 10753 10751 10749 10746 10744 10744 10743 10741 10741 10741 10742 10742 10745 10747 10748 10748 10750 10753 10753 10753 10754 10754 10753 10752 10751 10750 10750 10751 10750 10749 10747 10746 10744 10744 10743 10741 10739 10737 10736 10735 10733 10732 10730 10726 10723 10720 10718 10715 10710 10705 10701 10698 10694 10689
10738 10739 10740 10740 10741 10741 10742 10742 10743 10743 10744 10744 10745 10745 10746 10746 10745 10745 10746 10746 10746 10746 10743 10742 10741 10743 10745 10748 10750 10750 10747 10743 10740 10738 10737 10737 10735 10734 10734 10734 10736 10737 10737 10739 10743 10744 10743 10745 10750 10752 10750 10750 10750 10748 10746 10745 10744 10744 10744 10743 10742 10740 10739 10738 10737 10736 10735 10733 10731 10730 10729 10728 10726 10724 10721 10717 10714 10712 10709 10705 10700 10696 10692 10688 10684
10727 10728 10729 10730 10730 10731 10731 10732 10732 10733 10733 10734 10735 10736 10736 10736 10736 10736 10736 10737 10737 10736 10733 10731 10731 10734 10736 10739 10741 10741 10739 10735 10732 10729 10728 10728 10727 10728 10729 10730 10731 10732 10731 10732 10737 10741 10741 10742 10747 10749 10747 10745 10744 10741 10739 10738 10738 10737 10737 10736 10735 10733 10732 10731 10730 10729 10728 10727 10726 10724 10724 10722 10721 10718 10715 10711 10708 10706 10703 10699 10694 10690 10686 10682 10678
10716 10718 10719 10720 10720 10721 10721 10722 10722 10722 10723 10724 10725 10725 10726 10726 10726 10727 10727 10727 10727 10726 10723 10721 10722 10724 10726 10729 10732 10732 10730 10728 10726 10724 10722 10720 10720 10723 10726 10727 10726 10725 10723 10722 10727 10732 10736 10739 10742 10742 10740 10738 10736 10733 10732 10731 10732 10731 10730 10729 10727 10726 10725 10725 10724 10722 10722 10721 10720 10719 10718 10716 10714 10711 10708 10705 10702 10700 10697 10692 10688 10684 10679 10675 10671
10706 10708 10709 10710 10711 10711 10712 10712 10713 10713 10713 10714 10715 10715 10716 10716 10716 10717 10717 10717 10716 10715 10713 10712 10713 10715 10716 10719 10722 10723 10721 10719 10718 10718 10718 10717 10716 10718 10720 10721 10720 10718 10715 10715 10719 10723 10727 10731 10733 10733 10731 10730 10728 10726 10726 10726 10725 10724 10723 10721 10720 10719 10719 10718 10718 10717 10716 10715 10714 10713 10711 10709 10707 10705 10701 10698 10695 10693 10690 10685 10681 10677 10673 10669 10664
10696 10698 10699 10701 10701 10702 10702 10703 10704 10704 10704 10705 10705 10705 10706 10706 10706 10706 10706 10706 10705 10705 10703 10702 10704 10705 10707 10709 10712 10714 10713 10711 10710 10711 10713 10714 10714 10715 10715 10713 10712 10713 10714 10714 10716 10719 10721 10724 10725 10725 10724 10723 10722 10721 10720 10719 10718 10717 10715 10714 10713 10713 10713 10712 10711 10710 10710 10709 10708 10706 10704 10702 10700 10698 10694 10690 10688 10686 10682 10678 10674 10670 10666 10662 10658
10687 10688 10689 10691 10692 10693 10693 10694 10694 10695 10695 10695 10695 10695 10696 10696 10696 10696 10696 10696 10696 10696 10694 10693 10694 10696 10697 10700 10703 10705 10705 10704 10703 10704 10706 10708 10709 10711 10711 10707 10706 10709 10712 10712 10711 10712 10714 10716 10716 10715 10713 10713 10713 10713 10712 10711 10710 10709 10707 10706 10707 10707 10706 10705 10704 10704 10703 10702 10700 10698 10696 10694 10692 10690 10687 10683 10681 10678 10675 10671 10667 10663 10659 10655 10651
10677 10679 10680 10681 10682 10683 10684 10684 10685 10685 10686 10686 10686 10686 10687 10687 10687 10686 10686 10686 10687 10687 10686 10685 10685 10686 10688 10690 10694 10697 10698 10697 10697 10697 10699 10701 10703 10705 10706 10706 10706 10708 10709 10707 10705 10704 10705 10706 10705 10705 10705 10705 10705 10704 10704 10703 10702 10700 10699 10699 10699 10699 10698 10697 10697 10697 10696 10695 10692 10689 10687 10686 10684 10682 10679 10676 10673 10670 10667 10663 10659 10655 10652 10648 10644
10667 10669 10670 10671 10672 10673 10674 10674 10675 10676 10676 10677 10678 10678 10678 10678 10677 10676 10676 10676 10677 10678 10678 10677 10676 10676 10678 10680 10684 10688 10690 10690 10690 10689 10691 10695 10697 10698 10698 10701 10704 10706 10705 10702 10698 10697 10697 10697 10697 10698 10698 10698 10698 10697 10696 10695 10694 10693 10693 10693 10692 10691 10690 10690 10690 10690 10688 10686 10683 10681 10678 10676 10675 10673 10671 10667 10664 10661 10658 10654 10650 10647 10644 10641 10637
10655 10657 10659 10661 10662 10663 10664 10664 10665 10666 10667 10667 10668 10669 10669 10669 10668 10666 10666 10667 10668 10668 10669 10669 10669 10668 10669 10670 10674 10678 10680 10681 10681 10682 10684 10687 10689 10689 10687 10688 10692 10694 10693 10690 10687 10687 10688 10688 10689 10689 10690 10689 10689 10688 10688 10687 10686 10686 10685 10685 10684 10683 10683 10683 10683 10682 10680 10677 10674 10671 10668 10667 10666 10665 10662 10659 10656 10652 10649 10645 10642 10639 10636 10633 10630
10644 10645 10647 10650 10651 10653 10654 10655 10655 10656 10657 10657 10659 10660 10660 10660 10659 10657 10657 10658 10658 10658 10659 10660 10661 10661 10661 10661 10662 10666 10669 10671 10672 10674 10676 10679 10680 10679 10677 10677 10677 10678 10678 10676 10676 10677 10679 10679 10680 10680 10680 10680 10679 10679 10679 10678 10678 10677 10676 10675 10675 10675 10675 10674 10674 10672 10670 10667 10664 10661 10659 10657 10657 10655 10653 10651 10647 10644 10640 10637 10634 10631 10629 10625 10622
10635 10635 10636 10638 10640 10642 10644 10645 10645 10646 10647 10648 10649 10650 10651 10651 10650 10649 10648 10648 10648 10648 10649 10651 10652 10653 10654 10653 10652 10653 10657 10661 10663 10665 10667 10668 10669 10669 10668 10667 10667 10666 10667 10668 10668 10669 10670 10671 10671 10671 10670 10670 10670 10670 10669 10669 10668 10668 10667 10667 10666 10666 10666 10665 10664 10662 10659 10657 10654 10652 10650 10648 10647 10646 10644 10642 10638 10634 10631 10628 10625 10623 10620 10617 10614
10624 10625 10625 10627 10629 10631 10633 10634 10635 10636 10637 10638 10639 10640 10641 10641 10641 10640 10639 10638 10638 10639 10640 10641 10643 10644 10645 10645 10643 10643 10645 10649 10652 10655 10656 10656 10656 10657 10657 10657 10656 10656 10656 10657 10658 10658 10659 10661 10661 10660 10660 10660 10660 10660 10659 10659 10659 10658 10658 10657 10657 10656 10656 10654 10653 10650 10648 10646 10645 10643 10641 10639 10638 10636 10634 10632 10629 10625 10622 10619 10617 10615 10612 10609 10606
10614 10614 10615 10616 10618 10620 10621 10623 10624 10626 10627 10628 10629 10630 10631 10631 10631 10631 10630 10630 10630 10630 10630 10632 10634 10635 10635 10635 10635 10634 10635 10637 10641 10643 10644 10645 10645 10645 10644 10644 10644 10645 10645 10646 10646 10646 10647 10649 10650 10649 10649 10649 10649 10649 10649 10649 10648 10648 10648 10647 10647 10646 10645 10643 10641 10640 10638 10637 10636 10634 10632 10630 10628 10627 10624 10622 10619 10616 10613 10611 10609 10606 10604 10601 10598
10603 10604 10605 10606 10608 10609 10611 10612 10613 10614 10616 10617 10619 10620 10621 10621 10621 10621 10621 10621 10621 10621 10621 10622 10623 10624 10625 10626 10625 10626 10626 10628 10630 10632 10633 10633 10633 10632 10632 10632 10632 10633 10634 10635 10635 10635 10635 10637 10638 10638 10638 10638 10638 10638 10638 10638 10638 10637 10637 10637 10636 10635 10634 10633 10631 10630 10629 10628 10626 10625 10623 10621 10619 10616 10614 10611 10609 10607 10604 10602 10600 10597 10595 10592 10589